GSAT-8

Last updated on Wed Mar 04 2026 00:02:49 GMT+0000 (Coordinated Universal Time)

1 37605U 11022A 26062.62168371 .00000071 00000+0 00000+0 0 9993 2 37605 1.8583 83.1683 0007422 214.6535 142.4086 1.00271925 52153
UTC large
Height (km)
Speed (km/s)
/
Latitude / Longitude
Inclination (degrees)
Orbital Period (minutes)
Azimuth
Elevation
Range (km)
Doppler Factor

Next 0 passes for location: London (51.5072 / 0.1276)

Sorry there are no passes over London.